TimeMST,TemperatureF,Dew PointF,Humidity,Sea Level PressureIn,VisibilityMPH,Wind Direction,Wind SpeedMPH,Gust SpeedMPH,PrecipitationIn,Events,Conditions,WindDirDegrees,DateUTC
12:35 AM,-5.8,-14.8,65,30.31,10.0,ESE,11.5,-,N/A,,Clear,120,2012-12-20 07:35:00
12:55 AM,-2.2,-4.0,92,30.32,10.0,ESE,10.4,-,N/A,,Clear,110,2012-12-20 07:55:00
1:15 AM,-5.8,-14.8,65,30.32,10.0,East,15.0,-,N/A,,Clear,100,2012-12-20 08:15:00
1:35 AM,-4.0,-9.4,78,30.33,10.0,ESE,13.8,-,N/A,,Clear,110,2012-12-20 08:35:00
1:55 AM,-4.0,-7.6,85,30.34,10.0,ESE,10.4,-,N/A,,Clear,110,2012-12-20 08:55:00
2:15 AM,-4.0,-11.2,71,30.34,10.0,ESE,15.0,-,N/A,,Clear,110,2012-12-20 09:15:00
2:35 AM,-5.8,-9.4,84,30.35,10.0,ESE,16.1,-,N/A,,Clear,110,2012-12-20 09:35:00
2:55 AM,-5.8,-11.2,77,30.35,10.0,ESE,13.8,-,N/A,,Clear,110,2012-12-20 09:55:00
3:15 AM,-5.8,-9999,N/A,30.35,10.0,ESE,16.1,-,N/A,,Clear,110,2012-12-20 10:15:00
3:35 AM,-5.8,-9.4,84,30.35,10.0,ESE,13.8,-,N/A,,Clear,110,2012-12-20 10:35:00
3:55 AM,-5.8,-13.0,71,30.35,10.0,ESE,17.3,-,N/A,,Clear,120,2012-12-20 10:55:00
4:15 AM,-5.8,-11.2,77,30.36,10.0,ESE,12.7,-,N/A,,Clear,120,2012-12-20 11:15:00
4:35 AM,-7.6,-13.0,77,30.35,10.0,SE,16.1,-,N/A,,Clear,130,2012-12-20 11:35:00
4:55 AM,-5.8,-11.2,77,30.36,10.0,ESE,15.0,-,N/A,,Clear,120,2012-12-20 11:55:00
5:15 AM,-7.6,-14.8,71,30.38,10.0,ESE,13.8,-,N/A,,Clear,120,2012-12-20 12:15:00
5:55 AM,-7.6,-13.0,77,30.38,10.0,ESE,15.0,-,N/A,,Clear,120,2012-12-20 12:55:00
6:15 AM,-7.6,-14.8,71,30.39,10.0,ESE,15.0,-,N/A,,Clear,120,2012-12-20 13:15:00
6:35 AM,-7.6,-13.0,77,30.40,10.0,ESE,15.0,-,N/A,,Clear,120,2012-12-20 13:35:00
6:55 AM,-7.6,-11.2,84,30.40,10.0,ESE,13.8,-,N/A,,Clear,120,2012-12-20 13:55:00
7:15 AM,-7.6,-13.0,77,30.41,10.0,ESE,11.5,-,N/A,,Clear,120,2012-12-20 14:15:00
7:35 AM,-7.6,-11.2,84,30.41,10.0,ESE,15.0,-,N/A,,Clear,120,2012-12-20 14:35:00
7:55 AM,-7.6,-13.0,77,30.42,10.0,ESE,13.8,-,N/A,,Clear,120,2012-12-20 14:55:00
8:15 AM,-7.6,-13.0,77,30.42,10.0,ESE,16.1,-,N/A,,Clear,120,2012-12-20 15:15:00
8:35 AM,-5.8,-11.2,77,30.42,10.0,ESE,13.8,-,N/A,,Clear,110,2012-12-20 15:35:00
8:55 AM,-5.8,-9.4,84,30.42,10.0,ESE,15.0,-,N/A,,Clear,110,2012-12-20 15:55:00
9:15 AM,-2.2,-9.4,71,30.42,10.0,ESE,13.8,-,N/A,,Clear,120,2012-12-20 16:15:00
9:35 AM,-2.2,-9.4,71,30.43,3.0,ESE,12.7,-,N/A,,Clear,110,2012-12-20 16:35:00
9:55 AM,-0.4,-5.8,78,30.43,10.0,ESE,11.5,-,N/A,,Clear,110,2012-12-20 16:55:00
10:15 AM,-0.4,-7.6,72,30.43,10.0,ESE,10.4,-,N/A,,Clear,120,2012-12-20 17:15:00
10:35 AM,1.4,-7.6,66,30.43,10.0,ESE,10.4,-,N/A,,Clear,120,2012-12-20 17:35:00
10:55 AM,3.2,-5.8,66,30.42,10.0,ESE,9.2,-,N/A,,Clear,120,2012-12-20 17:55:00
11:15 AM,5.0,-4.0,66,30.41,10.0,SE,9.2,-,N/A,,Clear,130,2012-12-20 18:15:00
11:35 AM,6.8,-5.8,56,30.41,10.0,SE,6.9,-,N/A,,Clear,130,2012-12-20 18:35:00
11:55 AM,8.6,-2.2,62,30.40,10.0,SE,9.2,-,N/A,,Clear,130,2012-12-20 18:55:00
12:15 PM,8.6,-2.2,62,30.39,10.0,SE,9.2,-,N/A,,Clear,130,2012-12-20 19:15:00
12:35 PM,8.6,-2.2,62,30.38,10.0,SE,6.9,-,N/A,,Clear,130,2012-12-20 19:35:00
12:55 PM,8.6,-2.2,62,30.38,10.0,SE,8.1,-,N/A,,Clear,130,2012-12-20 19:55:00
1:15 PM,10.4,-0.4,62,30.37,10.0,SE,6.9,-,N/A,,Clear,140,2012-12-20 20:15:00
1:35 PM,8.6,-2.2,62,30.37,10.0,SE,8.1,-,N/A,,Clear,140,2012-12-20 20:35:00
1:55 PM,8.6,-0.4,67,30.37,10.0,SSE,3.5,-,N/A,,Clear,150,2012-12-20 20:55:00
2:15 PM,12.2,1.4,62,30.36,10.0,ESE,10.4,-,N/A,,Clear,120,2012-12-20 21:15:00
2:35 PM,12.2,-0.4,57,30.36,10.0,ESE,8.1,-,N/A,,Clear,120,2012-12-20 21:35:00
3:15 PM,10.4,-0.4,62,30.36,10.0,SE,8.1,-,N/A,,Clear,140,2012-12-20 22:15:00
3:35 PM,6.8,-5.8,56,30.35,10.0,East,4.6,-,N/A,,Clear,100,2012-12-20 22:35:00
3:55 PM,5.0,-5.8,61,30.35,10.0,ESE,8.1,-,N/A,,Clear,120,2012-12-20 22:55:00
4:15 PM,10.4,-0.4,62,30.34,10.0,ESE,11.5,-,N/A,,Clear,110,2012-12-20 23:15:00
4:35 PM,10.4,-2.2,57,30.34,10.0,ESE,13.8,-,N/A,,Clear,120,2012-12-20 23:35:00
5:15 PM,8.6,-5.8,52,30.34,10.0,ESE,11.5,-,N/A,,Clear,120,2012-12-21 00:15:00
5:35 PM,8.6,-4.0,57,30.34,10.0,ESE,11.5,-,N/A,,Clear,110,2012-12-21 00:35:00
5:55 PM,8.6,-2.2,62,30.33,10.0,ESE,15.0,-,N/A,,Clear,120,2012-12-21 00:55:00
6:15 PM,8.6,-2.2,62,30.32,10.0,ESE,15.0,-,N/A,,Clear,120,2012-12-21 01:15:00
6:35 PM,8.6,-4.0,57,30.33,10.0,ESE,15.0,-,N/A,,Clear,120,2012-12-21 01:35:00
7:15 PM,8.6,-2.2,62,30.33,10.0,ESE,13.8,-,N/A,,Clear,120,2012-12-21 02:15:00
7:35 PM,6.8,-5.8,56,30.32,10.0,SE,13.8,-,N/A,,Clear,130,2012-12-21 02:35:00
7:55 PM,6.8,-2.2,67,30.32,10.0,SE,16.1,-,N/A,,Clear,130,2012-12-21 02:55:00
8:15 PM,5.0,-5.8,61,30.32,10.0,ESE,11.5,-,N/A,,Clear,120,2012-12-21 03:15:00
8:35 PM,6.8,-4.0,61,30.32,10.0,ESE,13.8,-,N/A,,Clear,120,2012-12-21 03:35:00
8:55 PM,3.2,-5.8,66,30.33,10.0,ESE,13.8,-,N/A,,Clear,120,2012-12-21 03:55:00
9:15 PM,5.0,-4.0,66,30.33,10.0,ESE,15.0,-,N/A,,Clear,120,2012-12-21 04:15:00
9:35 PM,3.2,-4.0,72,30.33,10.0,SE,11.5,-,N/A,,Clear,130,2012-12-21 04:35:00
9:55 PM,6.8,-2.2,67,30.33,10.0,ESE,13.8,-,N/A,,Clear,120,2012-12-21 04:55:00
10:15 PM,6.8,-2.2,67,30.33,10.0,ESE,13.8,-,N/A,,Clear,110,2012-12-21 05:15:00
10:35 PM,5.0,-5.8,61,30.34,10.0,ESE,15.0,-,N/A,,Clear,110,2012-12-21 05:35:00
10:55 PM,5.0,-2.2,72,30.34,10.0,ESE,13.8,-,N/A,,Clear,110,2012-12-21 05:55:00
11:55 PM,6.8,-2.2,67,30.33,10.0,SE,16.1,-,N/A,,Clear,140,2012-12-21 06:55:00